Starlink 30172

operational
NORAD ID: 57410 Int'l Des: 2023-102 Owner: SPXS Country: US Constellation: starlink
LEOCIRCULAR

关于 Starlink 30172

正在加载描述...

实时位置

正在加载3D地球...

即将过境

高度历史

Altitude vs Time

uPlot chart will show altitude changes over time

两行轨道根数

1 57410U 23102G 25306.03299047 -.00010658 00000-0 -77403-3 0 9991
2 57410 43.0030 222.5000 0001443 267.9182 92.1495 15.02588713127030
Epoch: Nov 2, 2025 • Age: 52 hours

当前状态

高度 565.2 km
速度 7.58 km/s
星下点 -26.17°S, 53.68°W
发射日期 Jul 19, 2023
运行时间 2.2 years
类型 internet

技术详情

分类 Payload
质量 730.00 kg
干质量 700.00 kg
总质量 730.00 kg
长度 0.30 m
直径 4.10 m
跨度 29.00 m
形状 Box + pan
制造商 SPXS
平台类型 Starlink V2M
阶段状态 In Orbit
所有者/国家 SPXS/US

大型星座

Loading constellations...